Terug naar catalogus

PEGASUS DEB

ActiefPO
NORAD 39923·DEBRIS·🇺🇸 United States

Gelanceerd May 19, 1994 vanaf Vandenberg Space Force Base

Loading…

Volgende Passages (komende 24 uur)

TLE

VerouderendSource: Space-Track

Epoch: Sep 10, 2026, 09:34 UTC

1 39923U 94029AFW 26253.39889849  .00002930  00000-0  89525-3 0  9992
2 39923  82.1438 134.8625 0519048 130.9972 233.7304 13.84508677 66307

Volg PEGASUS DEB in realtime met AllMySat

Download on the App Store